Wind_Speed
42 44 45 42 40 39 40 41 41 41 44 46 47 47 46 47 47 47 48 49 49 48 47 46 45 44 42 41 40 39 39 39 38 37 36 35 35 36 35 35 35 35 36 37
41 41 40 40 39 39 40 39 39 40 42 43 44 46 46 47 47 46 47 49 50 48 47 46 45 44 42 41 41 40 39 39 38 38 37 37 37 37 37 37 37 38 38 39
37 36 38 39 39 38 38 37 37 38 39 40 42 44 45 45 45 45 46 47 49 49 48 47 46 44 43 42 41 40 40 40 39 38 38 38 38 38 38 38 39 40 41 41
33 35 36 36 36 36 36 36 36 36 37 38 40 42 42 43 44 44 44 45 46 48 48 47 46 44 43 42 41 41 40 40 40 39 39 39 39 39 40 41 41 41 42 42
30 33 34 33 33 33 34 35 34 34 34 35 37 39 40 42 42 42 42 43 44 45 46 46 45 44 43 42 41 41 40 40 40 40 40 40 41 41 41 42 42 43 43 44
26 29 31 31 31 31 32 32 31 32 33 34 34 36 37 39 39 40 41 42 42 43 43 44 44 44 43 42 41 41 41 41 41 41 41 41 41 42 42 43 43 44 44 45
24 27 28 30 31 31 31 31 31 32 34 33 32 34 35 37 37 38 39 41 41 41 42 43 42 42 42 41 41 41 41 41 41 41 42 42 42 43 43 44 44 45 45 46
21 24 27 28 30 30 31 31 30 30 30 29 31 33 35 35 35 35 36 38 39 40 41 41 41 41 41 41 41 41 41 41 41 42 42 42 42 43 43 44 44 45 46 46
20 23 25 25 27 29 30 30 28 27 26 26 28 31 33 33 33 34 34 35 37 38 39 40 41 41 41 40 40 40 41 41 41 41 41 41 42 42 43 44 44 44 45 45
18 20 22 23 24 26 27 27 27 26 25 24 25 27 29 30 31 32 33 34 35 36 37 39 40 40 40 40 40 40 40 40 40 41 41 41 41 42 42 42 42 43 43 44
16 18 19 21 22 24 26 26 26 25 25 24 24 26 26 28 29 31 32 33 34 35 36 37 37 38 39 39 39 39 39 39 39 40 40 40 40 40 40 40 41 41 41 42
15 16 17 19 20 22 24 24 24 25 25 24 24 25 23 24 26 28 30 31 33 34 34 35 36 37 37 38 37 37 37 37 37 37 37 37 37 38 38 38 39 39 39 39
12 14 16 18 20 20 21 22 24 24 24 24 24 25 22 22 24 26 28 29 31 32 33 34 34 35 36 36 35 35 35 35 35 35 35 35 36 36 36 36 36 36 36 37
11 13 14 17 18 18 20 22 23 24 23 23 24 24 22 22 23 24 25 26 28 29 30 31 32 33 33 33 33 33 32 32 32 33 33 33 34 34 33 34 34 34 34 35
11 12 14 15 16 16 17 19 21 21 21 23 23 23 22 22 22 22 23 24 25 26 27 28 28 29 29 30 30 30 30 30 30 30 31 31 31 31 32 32 32 32 33 34
12 13 13 14 15 16 16 17 18 19 20 21 22 21 21 21 20 20 21 22 23 23 24 25 25 26 27 27 27 27 28 28 28 28 29 29 29 29 30 30 30 31 31 31
12 13 13 13 14 15 16 16 17 18 19 20 20 20 20 19 18 19 20 21 21 22 22 23 23 24 25 25 26 26 26 27 27 27 28 28 27 27 28 28 28 28 29 29
11 13 13 13 14 14 14 15 17 17 18 18 18 18 18 17 17 19 19 20 21 21 22 22 22 23 24 24 25 25 25 25 26 26 26 26 25 26 26 26 26 26 27 27
12 13 14 14 14 14 14 14 15 16 16 16 17 17 17 17 17 18 18 19 19 20 20 21 22 22 23 23 24 24 24 24 24 24 24 24 23 24 24 24 24 24 25 25
13 13 14 14 15 15 14 15 15 16 17 17 17 17 17 17 18 17 18 18 19 19 20 21 21 21 22 22 22 22 22 22 22 22 22 22 22 22 22 23 22 23 23 24
14 14 14 15 15 15 15 15 16 16 16 16 17 17 17 18 18 18 18 18 19 20 20 20 20 20 20 20 20 20 20 21 21 21 21 21 21 22 22 22 21 21 22 23
14 15 15 16 16 15 15 16 16 16 16 17 17 18 18 18 19 19 19 19 19 19 19 19 19 19 19 19 19 19 20 20 20 20 20 20 21 21 21 21 21 22 22 22
14 15 16 16 16 16 16 16 17 17 17 18 18 18 18 19 19 20 20 20 19 19 19 19 19 19 19 19 19 20 20 20 20 20 20 20 20 20 21 21 21 21 22 22
16 16 16 16 17 17 18 18 18 18 18 19 19 19 20 20 20 20 20 20 19 19 19 18 18 19 19 19 19 19 19 19 19 20 19 19 20 20 20 21 21 21 22 22
17 17 17 17 17 18 18 18 19 19 19 19 20 20 20 20 21 21 20 20 20 19 18 18 18 18 18 18 19 18 18 18 18 19 19 19 19 20 20 21 21 22 22 22
18 18 19 18 18 18 18 19 19 19 20 20 20 20 20 20 21 21 21 21 20 20 19 19 19 19 19 19 18 18 19 18 18 19 19 20 20 20 21 21 21 22 22 23
Wind_Direction
203 206 208 208 212 215 219 221 223 226 229 229 229 227 227 227 227 226 226 226 227 228 230 231 232 235 237 240 242 245 248 250 253 256 258 261 264 266 269 271 274 276 277 277
199 202 205 206 209 212 216 219 222 225 229 230 229 228 227 228 227 227 227 227 228 229 231 232 234 236 239 241 243 245 247 249 252 255 258 260 263 266 269 272 274 275 276 277
196 197 199 203 207 210 214 217 221 225 229 231 231 230 229 229 229 228 228 229 230 230 232 233 235 237 239 241 244 246 248 250 252 254 257 260 263 266 269 272 273 274 276 277
192 194 197 200 204 208 211 215 220 225 229 232 232 232 230 229 230 229 229 231 232 232 233 234 236 239 240 242 244 246 248 250 252 255 257 260 263 266 269 270 272 274 276 277
188 191 195 198 201 205 210 215 220 226 230 233 232 232 231 230 230 230 231 232 233 234 235 236 238 240 241 242 244 246 247 250 253 255 258 261 264 266 268 270 272 274 275 276
183 188 194 196 200 205 210 215 220 225 230 233 233 233 232 232 230 230 232 233 234 235 236 237 239 240 242 243 245 246 248 250 253 256 259 261 264 266 268 270 272 273 274 276
182 188 191 195 200 203 207 212 218 224 230 234 234 234 232 232 230 230 232 233 234 236 236 237 239 241 242 244 246 248 250 252 254 257 259 261 264 266 268 270 271 273 274 276
184 189 193 197 203 205 207 213 218 225 232 235 234 234 233 232 232 231 232 234 235 236 237 238 240 242 243 245 247 249 252 254 255 257 259 262 264 265 267 269 271 273 274 275
187 192 194 198 202 205 208 211 217 224 230 234 235 235 235 233 233 232 233 234 235 236 238 239 240 242 244 246 248 250 252 254 255 257 259 261 263 266 268 270 271 273 275 276
191 193 197 201 203 205 209 210 213 221 227 233 238 238 236 232 234 233 233 234 236 237 238 239 241 242 244 247 249 250 252 253 255 257 259 261 264 266 268 270 271 273 275 276
193 193 197 200 204 207 209 210 216 222 227 231 235 238 234 231 232 233 233 233 235 237 238 239 240 242 244 246 248 249 251 253 255 257 259 262 264 266 268 270 272 274 275 277
194 200 204 205 205 207 211 214 219 223 226 228 232 238 236 232 232 232 232 233 234 235 237 238 239 241 243 245 247 249 251 253 255 257 260 262 264 267 269 272 274 276 277 278
201 205 208 210 210 213 216 219 222 224 227 229 233 238 236 235 233 232 232 233 234 235 236 238 239 240 242 244 246 248 251 253 255 258 261 263 266 269 271 274 276 278 278 279
208 210 213 216 219 221 223 222 223 225 228 230 235 239 236 234 233 233 233 234 235 236 236 238 239 240 242 244 246 249 251 254 257 260 263 266 268 271 273 275 277 278 280 281
216 215 217 218 219 221 223 223 223 227 231 233 234 238 236 234 233 233 234 235 236 236 237 239 240 242 243 245 247 250 253 256 259 262 265 267 269 271 273 275 278 281 282 283
222 220 221 224 224 223 223 225 227 228 230 231 232 234 234 232 232 233 234 235 236 237 238 239 241 243 245 247 250 253 255 258 261 263 266 268 270 272 274 276 280 282 283 285
226 224 225 228 228 228 225 226 228 228 228 229 230 231 232 231 232 233 233 235 236 238 240 241 243 246 248 251 253 256 257 259 261 264 266 268 271 273 275 278 281 282 284 286
229 231 231 230 230 231 228 226 228 227 228 229 230 230 231 231 232 233 233 235 236 239 242 245 247 249 252 254 256 258 259 260 261 263 265 268 271 274 277 279 281 283 286 288
233 233 231 231 231 229 227 227 227 226 227 229 231 232 231 231 232 233 234 237 239 242 245 247 250 252 254 256 257 258 258 259 261 263 266 269 272 274 277 281 282 284 287 289
235 234 234 234 234 232 227 229 230 230 231 232 233 234 234 234 236 236 237 240 243 246 249 249 250 252 254 256 257 257 257 259 261 263 266 268 271 274 277 280 283 286 289 290
237 236 238 239 238 236 231 232 234 234 234 234 235 236 237 238 240 240 242 245 247 250 251 250 250 252 254 255 256 257 258 260 262 264 266 268 270 274 278 280 282 287 290 293
239 239 240 241 241 238 235 236 238 239 238 238 239 240 242 243 244 245 247 248 250 252 251 251 252 253 255 256 257 258 260 261 263 264 266 268 271 274 278 280 283 287 291 293
241 242 243 244 244 240 239 240 240 241 241 241 242 243 244 245 245 247 249 250 251 252 251 252 254 255 257 258 259 260 260 261 263 264 266 268 271 274 278 281 284 288 292 294
241 244 246 247 245 243 242 242 243 243 244 244 245 246 246 247 248 250 251 250 250 252 252 254 255 256 257 260 261 261 261 261 263 264 267 269 271 275 278 282 285 288 292 295
244 245 246 246 245 245 245 246 245 245 245 245 246 247 248 248 249 250 250 249 250 251 253 254 256 257 258 261 262 262 261 262 264 265 267 271 273 276 279 283 286 289 292 294
245 246 246 246 246 247 245 246 246 245 245 246 247 248 250 250 250 250 250 250 250 252 253 254 256 258 259 261 263 262 262 262 264 266 269 272 274 276 280 284 288 289 291 294
Height
5597 5607 5617 5628 5638 5647 5653 5659 5666 5672 5677 5684 5691 5699 5705 5711 5718 5726 5733 5739 5746 5752 5758 5764 5769 5774 5779 5783 5786 5790 5793 5795 5797 5799 5801 5803 5804 5805 5807 5807 5808 5808 5809 5809
5594 5604 5616 5625 5632 5639 5647 5654 5661 5666 5671 5678 5684 5691 5698 5704 5712 5719 5726 5732 5738 5745 5750 5756 5762 5767 5772 5776 5780 5783 5785 5788 5790 5792 5794 5796 5797 5798 5799 5800 5801 5801 5801 5801
5592 5604 5611 5620 5628 5636 5643 5651 5657 5662 5667 5672 5678 5684 5692 5699 5705 5712 5719 5725 5731 5737 5743 5749 5755 5760 5765 5769 5773 5776 5778 5781 5783 5785 5787 5788 5790 5791 5792 5793 5793 5793 5792 5792
5590 5600 5608 5616 5625 5633 5640 5646 5652 5657 5663 5667 5673 5679 5686 5692 5698 5705 5712 5718 5724 5730 5736 5742 5747 5752 5757 5761 5765 5768 5771 5773 5775 5777 5779 5781 5782 5784 5784 5784 5785 5784 5784 5783
5590 5598 5606 5614 5622 5629 5636 5643 5648 5653 5658 5662 5667 5673 5680 5685 5692 5700 5706 5711 5717 5723 5728 5734 5739 5744 5749 5753 5757 5760 5763 5766 5767 5769 5771 5773 5774 5775 5776 5776 5776 5776 5775 5775
5591 5598 5605 5613 5620 5627 5634 5640 5645 5649 5652 5658 5663 5668 5674 5680 5687 5693 5699 5705 5710 5716 5721 5726 5731 5736 5740 5745 5749 5752 5755 5757 5759 5761 5763 5764 5766 5766 5767 5767 5767 5766 5766 5765
5592 5598 5604 5611 5617 5623 5630 5636 5641 5644 5648 5654 5659 5662 5669 5674 5681 5687 5692 5698 5703 5708 5713 5718 5723 5728 5732 5736 5740 5743 5746 5749 5751 5752 5754 5755 5757 5757 5758 5758 5757 5757 5757 5756
5593 5599 5604 5610 5616 5621 5627 5633 5638 5642 5646 5650 5654 5657 5663 5669 5675 5680 5686 5691 5695 5700 5705 5710 5715 5719 5724 5727 5731 5734 5737 5739 5742 5743 5745 5746 5747 5748 5748 5748 5748 5747 5746 5746
5594 5599 5604 5609 5614 5619 5624 5629 5635 5639 5643 5646 5649 5653 5658 5664 5669 5674 5679 5684 5688 5693 5698 5702 5706 5711 5715 5718 5722 5725 5728 5730 5732 5734 5736 5737 5738 5738 5739 5738 5738 5737 5736 5735
5595 5599 5603 5607 5612 5617 5622 5627 5632 5636 5639 5642 5646 5649 5653 5659 5663 5667 5672 5677 5681 5686 5690 5694 5698 5702 5706 5710 5713 5716 5718 5721 5723 5725 5726 5727 5728 5728 5728 5728 5728 5727 5726 5725
5596 5600 5604 5607 5611 5615 5620 5625 5628 5632 5636 5639 5642 5646 5648 5653 5657 5661 5665 5670 5674 5678 5682 5686 5690 5693 5697 5700 5703 5706 5709 5711 5713 5715 5716 5718 5718 5718 5719 5718 5718 5717 5716 5715
5597 5600 5603 5606 5610 5613 5618 5622 5626 5630 5632 5636 5638 5644 5644 5648 5651 5655 5659 5663 5667 5671 5674 5678 5682 5685 5688 5692 5695 5698 5700 5702 5704 5706 5707 5708 5709 5709 5709 5709 5708 5707 5706 5704
5597 5600 5603 5606 5610 5613 5615 5619 5622 5626 5629 5632 5635 5640 5640 5643 5647 5650 5654 5657 5660 5664 5667 5671 5674 5677 5681 5684 5687 5689 5692 5694 5695 5697 5698 5699 5699 5700 5699 5699 5698 5697 5695 5694
5597 5600 5603 5606 5608 5611 5614 5616 5619 5622 5625 5628 5631 5634 5637 5639 5642 5645 5648 5652 5655 5658 5661 5664 5667 5670 5673 5676 5679 5681 5684 5685 5687 5688 5689 5690 5690 5690 5690 5689 5688 5687 5685 5684
5597 5599 5601 5603 5606 5608 5611 5613 5616 5619 5622 5625 5627 5630 5633 5635 5638 5641 5644 5647 5650 5652 5655 5658 5661 5664 5667 5669 5672 5674 5676 5678 5679 5680 5681 5681 5681 5681 5681 5680 5679 5677 5676 5674
5596 5598 5599 5601 5603 5605 5608 5611 5613 5616 5618 5621 5623 5626 5629 5631 5634 5637 5640 5642 5645 5648 5650 5653 5655 5658 5660 5663 5665 5667 5669 5670 5671 5672 5673 5673 5673 5673 5672 5671 5670 5669 5667 5665
5594 5596 5598 5600 5601 5603 5606 5609 5611 5613 5615 5617 5620 5624 5625 5628 5630 5633 5636 5638 5640 5643 5645 5648 5650 5652 5655 5657 5658 5660 5661 5662 5663 5664 5665 5665 5665 5665 5664 5663 5662 5660 5658 5656
5593 5594 5596 5597 5600 5602 5606 5606 5608 5610 5612 5614 5617 5619 5622 5625 5627 5629 5631 5634 5636 5638 5641 5643 5645 5647 5649 5650 5652 5653 5654 5655 5656 5657 5657 5657 5657 5657 5656 5655 5654 5652 5651 5648
5590 5592 5594 5595 5597 5599 5602 5603 5605 5607 5610 5612 5614 5616 5619 5621 5623 5626 5628 5630 5632 5634 5636 5638 5639 5641 5642 5644 5645 5646 5647 5648 5649 5650 5650 5650 5650 5650 5649 5648 5647 5645 5643 5641
5588 5590 5592 5593 5595 5597 5601 5601 5602 5606 5607 5609 5611 5613 5615 5618 5620 5623 5624 5626 5627 5629 5630 5632 5634 5635 5636 5638 5639 5640 5641 5642 5643 5643 5643 5643 5643 5643 5642 5641 5640 5639 5637 5635
5586 5587 5589 5590 5591 5594 5597 5598 5600 5604 5606 5606 5607 5610 5612 5614 5616 5618 5620 5621 5623 5624 5625 5627 5628 5629 5631 5632 5633 5634 5635 5636 5636 5637 5637 5637 5637 5637 5636 5635 5634 5632 5630 5628
5583 5584 5586 5587 5589 5593 5593 5595 5597 5599 5600 5602 5604 5606 5608 5609 5611 5613 5615 5616 5618 5619 5620 5621 5623 5624 5625 5626 5627 5628 5629 5630 5630 5630 5631 5631 5631 5631 5630 5629 5628 5626 5624 5622
5579 5581 5582 5585 5588 5588 5589 5591 5593 5594 5596 5598 5600 5601 5603 5605 5606 5608 5610 5611 5612 5613 5615 5616 5617 5618 5619 5620 5621 5622 5623 5624 5624 5625 5625 5625 5625 5625 5624 5623 5622 5620 5618 5616
5576 5577 5579 5580 5582 5583 5585 5587 5588 5590 5592 5593 5595 5597 5598 5600 5602 5603 5604 5606 5607 5608 5610 5611 5612 5613 5614 5615 5616 5616 5617 5618 5618 5619 5619 5619 5619 5619 5618 5617 5616 5614 5612 5610
5572 5573 5574 5576 5578 5579 5581 5582 5584 5586 5587 5589 5590 5592 5593 5595 5596 5598 5599 5601 5602 5603 5604 5606 5607 5608 5609 5609 5610 5611 5611 5612 5613 5613 5613 5613 5613 5613 5612 5611 5610 5608 5606 5604
5567 5569 5570 5572 5573 5575 5577 5578 5579 5581 5582 5584 5585 5587 5588 5589 5591 5592 5594 5595 5596 5598 5599 5600 5601 5602 5603 5604 5605 5605 5606 5607 5607 5607 5608 5607 5607 5607 5606 5605 5604 5602 5600 5598